ATLAS 5 CENTAUR DEB, 46660

Orbit data source: Space-Track

ATLAS 5 CENTAUR DEB, 46660 is space debris in HEO originally from a launch on Wed, 17 Oct 2018 UTC launched from the Air Force Eastern Test Range (AFETR). Debris objects in space refer to the collection of defunct objects orbiting the Earth. Examples of debris include non-operational satellites, rocket bodies, and fragments generated from explosions, collisions, or faulty payload assembly.

Loading next visibility...
ATLAS 5 CENTAUR DEB details
Identifier
46660, 2018-079CN
Orbit
HEO
Last TLE update16 hours ago
Origin
Flag of USULA (US)
ManufacturerULA Decatur
MissionSpacecraft
Bus & MotorUnknown
MassUnknown
Launch date (UTC)
2018-10-17 (6 years ago)
Launch vehicleUnknown
Launch site
Air Force Eastern Test Range (AFETR)
Object type
Payload
Rocket body
Debris
Shape & HBRUnknown
Radar Cross SectionRCS unknown

Expand to show TLE details & history

TLE from 16 hours ago
0 ATLAS 5 CENTAUR DEB
1 46660U 18079CN  24346.28354069 -.00000102  00000-0  00000-0 0  9997
2 46660  12.4991  86.8704 4640983 212.3343 107.9987  1.81103788  1958
Epoch: 2024-12-11T06:48Z
Definitive object data (Epoch: 2024-12-11T06:48:17.915Z)
Latitude
Longitude-95.76208°
Altitude30,333.603 km
Speed2.774 km/s
True Right ascension05h 47m 10s
True Declination0° 00' 00"
Sunlit
Object was in daylight at TLE epoch
Visualization TLE readout
Latitude6.10097°
Longitude-67.00648°
Altitude35,198.058 km
Speed2.27 km/s
Apparent Right ascension07h 49m 19s
Apparent Declination0° 25' 38"
Sunlit
Object is in daylight
Visualization observer readout
Local Sidereal Time20:50:07
Azimuth22.764° NE
Elevation-47.336°
Doppler factor1
Orbital elements
Apogee altitude35,249.872 km
Perigee altitude8,858.901 km
Semi-major axis28,432.524 km
Eccentricity0.4640983
Inclination12.4991°
RAAN86.8704°
Arg. of periapsis212.3343°
True anomaly147.62806°
Mean anomaly107.9987°
Eccentric anomaly128.73955°
Mean motion0.45271 °/min
BSTARUnknown
Orbital period795.21 mins
Loading maneuver chart data...

ATLAS 5 CENTAUR DEB Visibility forecast

Observer location: undefined°, undefined

Span
Click to sort rows by Start time (UTC) header in descending order
Start Az.
Max El. time (UTC)
Max El. Az.
Max El.
End time (UTC)
End Az.
693 mins2024-12-12 06:55:06.710Z229.717° WSW2024-12-12 17:28:06.710Z207.46° SW33.956°2024-12-12 18:28:06.710Z135.201° SSE
|